| time (UTC) | temp C | wind direction | speed KPH | gust KPH | rain 1hr cm | rain 24hr cm | rain mn cm | humidity % | barometer mb |
| 20260507085733 | 11 | 234 | 1.6 | 12.9 | 0.00 | 0.03 | 0.03 | 77 | 1017.3 |
| 20260507085229 | 12 | 271 | 6.4 | 12.9 | 0.00 | 0.03 | 0.03 | 77 | 1017.3 |
| 20260507084729 | 11 | 120 | 1.6 | 17.7 | 0.00 | 0.03 | 0.03 | 79 | 1017.1 |
| 20260507084522 | 11 | 191 | 6.4 | 17.7 | 0.00 | 0.03 | 0.03 | 79 | 1017.5 |
| 20260507083729 | 11 | 274 | 4.8 | 17.7 | 0.00 | 0.03 | 0.03 | 81 | 1017.3 |
| 20260507083235 | 11 | 109 | 1.6 | 12.9 | 0.00 | 0.03 | 0.03 | 86 | 1017.5 |
| 20260507082729 | 10 | 266 | 3.2 | 9.7 | 0.00 | 0.03 | 0.03 | 87 | 1017.4 |
| 20260507082229 | 10 | 261 | 6.4 | 9.7 | 0.00 | 0.03 | 0.03 | 88 | 1017.2 |
| 20260507081729 | 10 | 157 | 0.0 | 9.7 | 0.00 | 0.03 | 0.03 | 89 | 1017.2 |
| 20260507081229 | 10 | 179 | 3.2 | 11.3 | 0.00 | 0.03 | 0.03 | 89 | 1017.3 |
| 20260507081052 | 10 | 311 | 3.2 | 11.3 | 0.00 | 0.03 | 0.03 | 89 | 1017.1 |
| 20260507080232 | 10 | 274 | 6.4 | 8.0 | 0.00 | 0.03 | 0.03 | 90 | 1017.4 |
| 20260507075729 | 9 | 246 | 3.2 | 8.0 | 0.00 | 0.03 | 0.03 | 90 | 1017.3 |
| 20260507075230 | 9 | 279 | 3.2 | 8.0 | 0.00 | 0.03 | 0.03 | 90 | 1017.3 |
| 20260507074732 | 9 | 324 | 1.6 | 8.0 | 0.00 | 0.03 | 0.03 | 91 | 1017.2 |
| 20260507074628 | 9 | 214 | 3.2 | 8.0 | 0.00 | 0.03 | 0.03 | 92 | 1017.3 |
| 20260507073735 | 9 | 215 | 1.6 | 4.8 | 0.00 | 0.03 | 0.03 | 92 | 1016.8 |
| 20260507073230 | 9 | 129 | 0.0 | 8.0 | 0.00 | 0.03 | 0.03 | 92 | 1017.0 |
| 20260507072926 | 8 | 298 | 3.2 | 8.0 | 0.00 | 0.03 | 0.03 | 92 | 1017.1 |
| 20260507072921 | 8 | 233 | 3.2 | 9.7 | 0.00 | 0.03 | 0.03 | 93 | 1016.8 |
| 20260507072842 | 8 | 252 | 1.6 | 8.0 | 0.00 | 0.03 | 0.03 | 92 | 1017.0 |
| 20260507072352 | 8 | 196 | 0.0 | 6.4 | 0.00 | 0.03 | 0.03 | 93 | 1016.9 |
| 20260507072248 | 8 | 224 | 3.2 | 6.4 | 0.00 | 0.03 | 0.03 | 93 | 1016.7 |
| 20260507071820 | 8 | 255 | 4.8 | 9.7 | 0.00 | 0.03 | 0.00 | 93 | 1017.1 |
| 20260507065740 | 8 | 249 | 6.4 | 9.7 | 0.00 | 0.03 | 0.03 | 93 | 1016.9 |
| 20260507065616 | 8 | 274 | 1.6 | 12.9 | 0.00 | 0.03 | 0.03 | 93 | 1016.9 |
| 20260507064729 | 8 | 226 | 4.8 | 12.9 | 0.00 | 0.03 | 0.03 | 93 | 1016.7 |
| 20260507064229 | 8 | 262 | 3.2 | 9.7 | 0.00 | 0.03 | 0.03 | 94 | 1016.6 |
| 20260507064112 | 8 | 242 | 1.6 | 9.7 | 0.00 | 0.03 | 0.03 | 94 | 1016.5 |
| 20260507063233 | 8 | 265 | 0.0 | 9.7 | 0.00 | 0.03 | 0.03 | 94 | 1016.6 |
| 20260507062735 | 8 | 239 | 4.8 | 6.4 | 0.00 | 0.03 | 0.03 | 94 | 1016.5 |
| 20260507062229 | 8 | 270 | 6.4 | 8.0 | 0.00 | 0.03 | 0.03 | 94 | 1016.6 |
| 20260507061728 | 8 | 197 | 3.2 | 9.7 | 0.00 | 0.03 | 0.03 | 94 | 1016.6 |
| 20260507061717 | 8 | 245 | 4.8 | 14.5 | 0.00 | 0.03 | 0.03 | 94 | 1016.3 |
| 20260507061712 | 8 | 230 | 6.4 | 12.9 | 0.00 | 0.03 | 0.03 | 94 | 1016.3 |
| 20260507060239 | 8 | 241 | 3.2 | 14.5 | 0.00 | 0.03 | 0.03 | 94 | 1016.2 |
| 20260507060018 | 8 | 260 | 8.0 | 11.3 | 0.00 | 0.03 | 0.03 | 94 | 1016.2 |
| 20260507055900 | 8 | 198 | 3.2 | 11.3 | 0.00 | 0.03 | 0.03 | 94 | 1016.1 |
| 20260507054728 | 8 | 224 | 8.0 | 11.3 | 0.00 | 0.03 | 0.03 | 94 | 1016.2 |
| 20260507054229 | 8 | 239 | 6.4 | 11.3 | 0.00 | 0.03 | 0.03 | 94 | 1016.1 |
| 20260507053729 | 8 | 258 | 6.4 | 9.7 | 0.00 | 0.03 | 0.03 | 94 | 1016.0 |
| 20260507053232 | 8 | 235 | 4.8 | 9.7 | 0.00 | 0.03 | 0.03 | 94 | 1015.9 |
| 20260507052729 | 8 | 274 | 6.4 | 9.7 | 0.00 | 0.03 | 0.03 | 94 | 1015.8 |
| 20260507052229 | 8 | 248 | 3.2 | 9.7 | 0.00 | 0.03 | 0.03 | 94 | 1015.7 |
| 20260507051728 | 8 | 211 | 6.4 | 9.7 | 0.00 | 0.03 | 0.03 | 94 | 1015.9 |
| 20260507051614 | 8 | 231 | 8.0 | 9.7 | 0.00 | 0.03 | 0.03 | 94 | 1015.7 |
| 20260507050742 | 8 | 178 | 1.6 | 9.7 | 0.00 | 0.03 | 0.03 | 94 | 1015.6 |
| 20260507050231 | 8 | 247 | 3.2 | 8.0 | 0.00 | 0.03 | 0.03 | 95 | 1015.6 |
| 20260507045728 | 8 | 280 | 6.4 | 8.0 | 0.00 | 0.03 | 0.00 | 94 | 1015.5 |
| 20260507045229 | 8 | 213 | 4.8 | 9.7 | 0.00 | 0.03 | 0.00 | 94 | 1015.6 |
| 20260507044729 | 8 | 234 | 1.6 | 9.7 | 0.00 | 0.03 | 0.00 | 94 | 1015.5 |
| 20260507044229 | 8 | 216 | 4.8 | 8.0 | 0.00 | 0.03 | 0.00 | 94 | 1015.4 |
| 20260507043950 | 8 | 209 | 1.6 | 9.7 | 0.00 | 0.03 | 0.00 | 94 | 1015.3 |
| 20260507043836 | 8 | 260 | 3.2 | 9.7 | 0.00 | 0.03 | 0.00 | 94 | 1015.3 |
| 20260507042801 | 8 | 245 | 4.8 | 9.7 | 0.00 | 0.03 | 0.00 | 94 | 1015.2 |
| 20260507042617 | 8 | 244 | 3.2 | 12.9 | 0.00 | 0.03 | 0.00 | 94 | 1015.0 |
| 20260507042520 | 8 | 235 | 1.6 | 9.7 | 0.00 | 0.03 | 0.00 | 94 | 1015.1 |
| 20260507042345 | 8 | 238 | 4.8 | 11.3 | 0.00 | 0.03 | 0.00 | 94 | 1015.0 |
| 20260507042254 | 8 | 230 | 6.4 | 12.9 | 0.00 | 0.03 | 0.00 | 94 | 1015.3 |
| 20260507041913 | 8 | 282 | 3.2 | 9.7 | 0.00 | 0.03 | 0.00 | 94 | 1014.7 |
| 20260507035746 | 8 | 250 | 4.8 | 8.0 | 0.03 | 0.03 | 0.03 | 94 | 1014.9 |
| 20260507035256 | 8 | 267 | 3.2 | 9.7 | 0.03 | 0.03 | 0.03 | 94 | 1014.9 |
| 20260507034753 | 8 | 262 | 6.4 | 9.7 | 0.03 | 0.03 | 0.03 | 94 | 1015.1 |
| 20260507034255 | 8 | 253 | 1.6 | 9.7 | 0.03 | 0.03 | 0.03 | 94 | 1015.0 |
| 20260507033741 | 8 | 251 | 6.4 | 9.7 | 0.03 | 0.03 | 0.03 | 93 | 1014.9 |
| 20260507033523 | 8 | 287 | 3.2 | 12.9 | 0.03 | 0.03 | 0.03 | 93 | 1014.8 |
| 20260507032730 | 8 | 231 | 3.2 | 12.9 | 0.03 | 0.03 | 0.03 | 93 | 1015.0 |
| 20260507032239 | 8 | 262 | 4.8 | 8.0 | 0.03 | 0.03 | 0.03 | 93 | 1015.0 |
| 20260507031735 | 8 | 227 | 4.8 | 8.0 | 0.03 | 0.03 | 0.03 | 92 | 1015.0 |
| 20260507031231 | 8 | 274 | 3.2 | 9.7 | 0.03 | 0.03 | 0.03 | 92 | 1014.9 |
| 20260507030729 | 8 | 265 | 1.6 | 12.9 | 0.03 | 0.03 | 0.03 | 92 | 1014.7 |
| 20260507030524 | 8 | 233 | 8.0 | 17.7 | 0.03 | 0.03 | 0.00 | 91 | 1014.6 |
| 20260507025740 | 8 | 233 | 4.8 | 17.7 | 0.00 | 0.00 | 0.00 | 91 | 1014.7 |
| 20260507025231 | 8 | 287 | 11.3 | 14.5 | 0.00 | 0.00 | 0.00 | 91 | 1015.0 |
| 20260507024729 | 8 | 232 | 11.3 | 16.1 | 0.00 | 0.00 | 0.00 | 90 | 1014.7 |
| 20260507024228 | 8 | 267 | 3.2 | 16.1 | 0.00 | 0.00 | 0.00 | 90 | 1014.9 |
| 20260507024025 | 8 | 238 | 8.0 | 16.1 | 0.00 | 0.00 | 0.00 | 90 | 1014.8 |
| 20260507023523 | 8 | 223 | 4.8 | 9.7 | 0.00 | 0.00 | 0.00 | 90 | 1014.7 |
| 20260507022740 | 8 | 263 | 8.0 | 11.3 | 0.00 | 0.00 | 0.00 | 89 | 1014.9 |
| 20260507022523 | 8 | 238 | 6.4 | 16.1 | 0.00 | 0.00 | 0.00 | 89 | 1014.7 |
| 20260507021729 | 8 | 253 | 3.2 | 16.1 | 0.00 | 0.00 | 0.00 | 89 | 1014.8 |
| 20260507021228 | 8 | 292 | 6.4 | 9.7 | 0.00 | 0.00 | 0.00 | 89 | 1014.6 |
| 20260507020729 | 8 | 284 | 4.8 | 14.5 | 0.00 | 0.00 | 0.00 | 88 | 1014.6 |
| 20260507020229 | 8 | 263 | 8.0 | 17.7 | 0.00 | 0.00 | 0.00 | 88 | 1014.2 |
| 20260507015739 | 8 | 281 | 11.3 | 17.7 | 0.00 | 0.00 | 0.00 | 88 | 1014.3 |
| 20260507015229 | 9 | 304 | 8.0 | 16.1 | 0.00 | 0.00 | 0.00 | 88 | 1014.3 |
| 20260507014729 | 9 | 244 | 9.7 | 16.1 | 0.00 | 0.00 | 0.00 | 87 | 1014.5 |
| 20260507014231 | 9 | 272 | 6.4 | 16.1 | 0.00 | 0.00 | 0.00 | 87 | 1014.2 |
| 20260507013729 | 9 | 289 | 8.0 | 14.5 | 0.00 | 0.00 | 0.00 | 87 | 1014.2 |
| 20260507013520 | 9 | 298 | 8.0 | 14.5 | 0.00 | 0.00 | 0.00 | 87 | 1014.5 |
| 20260507012925 | 9 | 269 | 4.8 | 14.5 | 0.00 | 0.00 | 0.00 | 87 | 1013.9 |
| 20260507012921 | 9 | 280 | 9.7 | 14.5 | 0.00 | 0.00 | 0.00 | 87 | 1014.0 |
| 20260507012858 | 9 | 279 | 8.0 | 17.7 | 0.00 | 0.00 | 0.00 | 87 | 1014.0 |
| 20260507012725 | 9 | 270 | 4.8 | 17.7 | 0.00 | 0.00 | 0.00 | 87 | 1014.0 |
| 20260507012536 | 9 | 287 | 12.9 | 17.7 | 0.00 | 0.00 | 0.00 | 88 | 1013.9 |
| 20260507012146 | 9 | 254 | 6.4 | 12.9 | 0.00 | 0.00 | 0.00 | 87 | 1013.8 |
| 20260507005753 | 9 | 259 | 8.0 | 14.5 | 0.00 | 0.00 | 0.00 | 88 | 1014.0 |
| 20260507005227 | 9 | 244 | 9.7 | 12.9 | 0.00 | 0.00 | 0.00 | 87 | 1014.0 |
| 20260507004727 | 9 | 225 | 3.2 | 17.7 | 0.00 | 0.00 | 0.00 | 87 | 1013.7 |
| 20260507004227 | 9 | 259 | 3.2 | 17.7 | 0.00 | 0.00 | 0.00 | 87 | 1014.0 |
| 20260507003727 | 9 | 271 | 4.8 | 14.5 | 0.00 | 0.00 | 0.00 | 87 | 1013.8 |
| 20260507003227 | 9 | 225 | 3.2 | 14.5 | 0.00 | 0.00 | 0.00 | 87 | 1013.8 |
| 20260507002742 | 9 | 264 | 4.8 | 14.5 | 0.00 | 0.00 | 0.00 | 87 | 1013.9 |
| 20260507002227 | 9 | 262 | 6.4 | 14.5 | 0.00 | 0.03 | 0.00 | 87 | 1013.8 |
| 20260507001732 | 9 | 301 | 4.8 | 11.3 | 0.00 | 0.03 | 0.00 | 87 | 1013.9 |
| 20260507001227 | 9 | 231 | 6.4 | 14.5 | 0.00 | 0.08 | 0.00 | 86 | 1013.7 |
| 20260507000728 | 9 | 257 | 9.7 | 14.5 | 0.00 | 0.08 | 0.00 | 86 | 1013.6 |
| 20260507000227 | 9 | 257 | 8.0 | 11.3 | 0.00 | 0.08 | 0.00 | 86 | 1013.8 |
| 20260506235738 | 9 | 248 | 6.4 | 12.9 | 0.00 | 0.08 | 0.00 | 86 | 1013.6 |
| 20260506235226 | 9 | 248 | 6.4 | 12.9 | 0.00 | 0.08 | 0.00 | 86 | 1013.8 |
| 20260506234727 | 9 | 276 | 6.4 | 11.3 | 0.00 | 0.08 | 0.00 | 86 | 1013.6 |
| 20260506234227 | 9 | 288 | 3.2 | 11.3 | 0.00 | 0.10 | 0.00 | 86 | 1013.7 |
| 20260506233727 | 9 | 226 | 4.8 | 14.5 | 0.00 | 0.10 | 0.00 | 86 | 1013.6 |
| 20260506233615 | 9 | 293 | 6.4 | 17.7 | 0.00 | 0.10 | 0.00 | 86 | 1013.5 |
| 20260506232727 | 9 | 256 | 6.4 | 17.7 | 0.00 | 0.10 | 0.00 | 85 | 1013.7 |
| 20260506232226 | 9 | 222 | 4.8 | 12.9 | 0.00 | 0.10 | 0.00 | 86 | 1013.6 |
| 20260506231726 | 10 | 305 | 4.8 | 16.1 | 0.00 | 0.10 | 0.00 | 85 | 1013.4 |
| 20260506231234 | 10 | 286 | 4.8 | 16.1 | 0.00 | 0.10 | 0.00 | 85 | 1013.5 |
| 20260506230726 | 10 | 314 | 3.2 | 14.5 | 0.00 | 0.10 | 0.00 | 85 | 1013.6 |
| 20260506230229 | 10 | 273 | 4.8 | 14.5 | 0.00 | 0.10 | 0.00 | 85 | 1013.4 |
| 20260506225727 | 10 | 233 | 6.4 | 14.5 | 0.00 | 0.10 | 0.00 | 85 | 1013.7 |
| 20260506225227 | 10 | 304 | 8.0 | 16.1 | 0.00 | 0.10 | 0.00 | 85 | 1013.6 |
| 20260506225112 | 10 | 262 | 6.4 | 16.1 | 0.00 | 0.10 | 0.00 | 85 | 1013.5 |
| 20260506224227 | 10 | 231 | 6.4 | 16.1 | 0.00 | 0.10 | 0.00 | 85 | 1013.4 |
| 20260506223726 | 10 | 278 | 6.4 | 16.1 | 0.00 | 0.10 | 0.00 | 85 | 1013.2 |
| 20260506223226 | 10 | 226 | 8.0 | 14.5 | 0.00 | 0.10 | 0.00 | 84 | 1013.3 |
| 20260506222732 | 10 | 260 | 6.4 | 16.1 | 0.00 | 0.10 | 0.00 | 85 | 1013.2 |
| 20260506222228 | 10 | 262 | 4.8 | 17.7 | 0.00 | 0.10 | 0.00 | 84 | 1013.1 |
| 20260506222113 | 10 | 311 | 12.9 | 17.7 | 0.00 | 0.10 | 0.00 | 84 | 1013.2 |
| 20260506222021 | 10 | 240 | 11.3 | 16.1 | 0.00 | 0.10 | 0.00 | 84 | 1013.0 |
| 20260506221930 | 10 | 264 | 8.0 | 20.9 | 0.00 | 0.10 | 0.00 | 84 | 1013.1 |
| 20260506221814 | 10 | 300 | 6.4 | 20.9 | 0.00 | 0.10 | 0.00 | 84 | 1013.3 |
| 20260506215656 | 10 | 258 | 11.3 | 19.3 | 0.00 | 0.10 | 0.10 | 84 | 1013.2 |
| 20260506215155 | 10 | 258 | 8.0 | 17.7 | 0.00 | 0.10 | 0.10 | 84 | 1013.1 |
| 20260506215040 | 10 | 255 | 4.8 | 16.1 | 0.00 | 0.10 | 0.10 | 84 | 1013.2 |
| 20260506214540 | 10 | 260 | 6.4 | 11.3 | 0.00 | 0.10 | 0.10 | 84 | 1013.2 |
| 20260506213656 | 10 | 296 | 9.7 | 11.3 | 0.00 | 0.10 | 0.10 | 84 | 1012.9 |
| 20260506213156 | 10 | 269 | 6.4 | 14.5 | 0.00 | 0.10 | 0.10 | 84 | 1013.0 |
| 20260506212655 | 10 | 236 | 11.3 | 17.7 | 0.00 | 0.10 | 0.10 | 84 | 1012.9 |
| 20260506212630 | 10 | 280 | 8.0 | 17.7 | 0.00 | 0.10 | 0.10 | 84 | 1012.9 |
| 20260506211705 | 10 | 261 | 6.4 | 17.7 | 0.00 | 0.10 | 0.10 | 83 | 1012.5 |
| 20260506211458 | 10 | 289 | 9.7 | 16.1 | 0.00 | 0.10 | 0.10 | 83 | 1012.5 |
| 20260506211329 | 10 | 277 | 11.3 | 17.7 | 0.00 | 0.10 | 0.10 | 83 | 1012.6 |
| 20260506210158 | 10 | 273 | 12.9 | 16.1 | 0.00 | 0.10 | 0.10 | 83 | 1012.7 |
| 20260506205655 | 10 | 249 | 6.4 | 19.3 | 0.00 | 0.10 | 0.10 | 83 | 1012.6 |
| 20260506205159 | 10 | 265 | 14.5 | 19.3 | 0.00 | 0.10 | 0.10 | 82 | 1012.6 |
| 20260506205027 | 10 | 281 | 0.0 | 17.7 | 0.00 | 0.10 | 0.10 | 83 | 1012.5 |
| 20260506204156 | 10 | 256 | 11.3 | 17.7 | 0.00 | 0.10 | 0.10 | 82 | 1012.6 |
| 20260506203655 | 10 | 301 | 9.7 | 17.7 | 0.00 | 0.10 | 0.10 | 83 | 1012.6 |
| 20260506203155 | 10 | 302 | 6.4 | 20.9 | 0.00 | 0.10 | 0.10 | 84 | 1012.6 |
| 20260506202656 | 10 | 86 | 1.6 | 20.9 | 0.00 | 0.10 | 0.10 | 84 | 1012.3 |
| 20260506202614 | 10 | 271 | 6.4 | 20.9 | 0.00 | 0.10 | 0.10 | 85 | 1012.6 |
| 20260506201725 | 10 | 254 | 8.0 | 20.9 | 0.00 | 0.10 | 0.10 | 85 | 1012.4 |
| 20260506201224 | 10 | 341 | 11.3 | 16.1 | 0.00 | 0.10 | 0.10 | 86 | 1012.2 |
| 20260506200728 | 11 | 309 | 6.4 | 16.1 | 0.00 | 0.10 | 0.10 | 85 | 1012.4 |
| 20260506200229 | 11 | 271 | 4.8 | 16.1 | 0.00 | 0.10 | 0.10 | 85 | 1012.2 |
| 20260506195656 | 11 | 294 | 4.8 | 22.5 | 0.00 | 0.10 | 0.10 | 85 | 1012.0 |
| 20260506195209 | 11 | 278 | 8.0 | 22.5 | 0.00 | 0.10 | 0.10 | 85 | 1012.1 |
| 20260506194926 | 11 | 256 | 4.8 | 12.9 | 0.00 | 0.10 | 0.10 | 85 | 1011.7 |
| 20260506194834 | 11 | 251 | 6.4 | 9.7 | 0.00 | 0.10 | 0.10 | 85 | 1012.1 |
| 20260506193711 | 11 | 260 | 4.8 | 17.7 | 0.00 | 0.10 | 0.10 | 85 | 1011.9 |
| 20260506193211 | 11 | 302 | 9.7 | 17.7 | 0.00 | 0.10 | 0.10 | 85 | 1011.8 |
| 20260506192657 | 11 | 247 | 4.8 | 12.9 | 0.00 | 0.10 | 0.10 | 84 | 1011.8 |
| 20260506192317 | 11 | 251 | 1.6 | 12.9 | 0.00 | 0.10 | 0.10 | 84 | 1011.7 |
| 20260506192100 | 11 | 305 | 4.8 | 19.3 | 0.00 | 0.10 | 0.10 | 84 | 1011.7 |
| 20260506192009 | 11 | 1 | 4.8 | 19.3 | 0.00 | 0.10 | 0.10 | 84 | 1011.6 |
| 20260506191901 | 11 | 293 | 8.0 | 17.7 | 0.00 | 0.10 | 0.10 | 84 | 1011.6 |
| 20260506191816 | 11 | 333 | 6.4 | 17.7 | 0.00 | 0.10 | 0.00 | 85 | 1011.4 |
| 20260506185655 | 11 | 252 | 11.3 | 14.5 | 0.00 | 0.13 | 0.10 | 85 | 1011.5 |
| 20260506185212 | 11 | 326 | 9.7 | 17.7 | 0.00 | 0.13 | 0.10 | 84 | 1011.4 |
| 20260506184657 | 11 | 262 | 4.8 | 17.7 | 0.00 | 0.13 | 0.10 | 84 | 1011.3 |
| 20260506184155 | 11 | 252 | 6.4 | 17.7 | 0.00 | 0.13 | 0.10 | 84 | 1011.3 |
| 20260506183658 | 11 | 296 | 6.4 | 17.7 | 0.00 | 0.13 | 0.10 | 83 | 1011.1 |
| 20260506183157 | 11 | 287 | 11.3 | 16.1 | 0.00 | 0.13 | 0.10 | 84 | 1011.1 |
| 20260506182657 | 12 | 244 | 4.8 | 20.9 | 0.00 | 0.13 | 0.10 | 83 | 1011.0 |
| 20260506182207 | 12 | 351 | 6.4 | 20.9 | 0.00 | 0.13 | 0.10 | 83 | 1010.9 |
| 20260506181655 | 12 | 261 | 14.5 | 20.9 | 0.00 | 0.13 | 0.10 | 83 | 1010.9 |
| 20260506181157 | 12 | 307 | 11.3 | 20.9 | 0.00 | 0.13 | 0.10 | 83 | 1010.9 |
| 20260506180655 | 12 | 314 | 9.7 | 20.9 | 0.00 | 0.15 | 0.10 | 84 | 1010.6 |
| 20260506180157 | 12 | 324 | 9.7 | 14.5 | 0.00 | 0.15 | 0.10 | 84 | 1010.6 |
| 20260506175654 | 12 | 294 | 6.4 | 17.7 | 0.00 | 0.15 | 0.10 | 84 | 1010.6 |
| 20260506175159 | 12 | 293 | 6.4 | 17.7 | 0.00 | 0.15 | 0.10 | 83 | 1010.6 |
| 20260506174655 | 12 | 299 | 9.7 | 14.5 | 0.00 | 0.15 | 0.10 | 83 | 1010.6 |
| 20260506174155 | 12 | 267 | 6.4 | 17.7 | 0.00 | 0.15 | 0.10 | 83 | 1010.4 |
| 20260506173657 | 12 | 281 | 6.4 | 17.7 | 0.00 | 0.15 | 0.10 | 83 | 1010.5 |
| 20260506173155 | 12 | 287 | 9.7 | 12.9 | 0.00 | 0.18 | 0.10 | 83 | 1010.3 |
| 20260506172706 | 12 | 242 | 8.0 | 14.5 | 0.00 | 0.18 | 0.10 | 83 | 1010.6 |
| 20260506172200 | 12 | 290 | 8.0 | 17.7 | 0.00 | 0.18 | 0.10 | 82 | 1010.2 |
| 20260506171656 | 12 | 284 | 14.5 | 17.7 | 0.00 | 0.18 | 0.10 | 82 | 1010.3 |
| 20260506171155 | 12 | 349 | 4.8 | 20.9 | 0.00 | 0.18 | 0.10 | 82 | 1010.2 |
| 20260506170655 | 12 | 316 | 4.8 | 20.9 | 0.00 | 0.18 | 0.10 | 81 | 1010.2 |
| 20260506170154 | 13 | 303 | 8.0 | 22.5 | 0.00 | 0.20 | 0.10 | 81 | 1010.3 |
| 20260506165936 | 13 | 277 | 6.4 | 22.5 | 0.00 | 0.20 | 0.10 | 80 | 1010.0 |
| 20260506165159 | 13 | 315 | 8.0 | 16.1 | 0.00 | 0.20 | 0.10 | 80 | 1010.1 |
| 20260506164655 | 13 | 306 | 12.9 | 17.7 | 0.00 | 0.20 | 0.10 | 81 | 1010.0 |
| 20260506164157 | 13 | 293 | 14.5 | 25.7 | 0.00 | 0.20 | 0.10 | 80 | 1010.1 |
| 20260506163655 | 13 | 284 | 17.7 | 25.7 | 0.00 | 0.20 | 0.10 | 79 | 1010.1 |
| 20260506163154 | 14 | 270 | 14.5 | 25.7 | 0.00 | 0.20 | 0.10 | 78 | 1010.0 |
| 20260506162801 | 14 | 272 | 12.9 | 24.1 | 0.00 | 0.20 | 0.10 | 79 | 1009.8 |
| 20260506162731 | 14 | 303 | 9.7 | 22.5 | 0.00 | 0.20 | 0.10 | 79 | 1009.9 |
| 20260506162607 | 14 | 298 | 11.3 | 27.4 | 0.00 | 0.20 | 0.10 | 78 | 1009.9 |
| 20260506162430 | 14 | 324 | 17.7 | 35.4 | 0.00 | 0.20 | 0.10 | 78 | 1009.7 |
| 20260506162320 | 14 | 306 | 17.7 | 35.4 | 0.00 | 0.20 | 0.10 | 78 | 1009.9 |
| 20260506162230 | 14 | 279 | 14.5 | 27.4 | 0.00 | 0.20 | 0.00 | 79 | 1009.7 |
| 20260506161954 | 14 | 303 | 22.5 | 27.4 | 0.00 | 0.20 | 0.10 | 79 | 1009.7 |
| 20260506155130 | 14 | 305 | 20.9 | 24.1 | 0.00 | 0.20 | 0.10 | 81 | 1009.7 |
| 20260506154629 | 13 | 322 | 8.0 | 20.9 | 0.00 | 0.20 | 0.10 | 83 | 1009.8 |
| 20260506154130 | 13 | 269 | 9.7 | 24.1 | 0.00 | 0.20 | 0.10 | 85 | 1009.8 |
| 20260506153641 | 13 | 275 | 4.8 | 24.1 | 0.00 | 0.20 | 0.10 | 84 | 1009.8 |
| 20260506153129 | 13 | 301 | 14.5 | 20.9 | 0.00 | 0.20 | 0.10 | 85 | 1010.1 |
| 20260506152630 | 13 | 296 | 16.1 | 25.7 | 0.00 | 0.20 | 0.10 | 85 | 1009.8 |
| 20260506152130 | 13 | 268 | 14.5 | 25.7 | 0.00 | 0.20 | 0.10 | 85 | 1010.1 |
| 20260506151630 | 13 | 279 | 11.3 | 24.1 | 0.00 | 0.20 | 0.10 | 86 | 1009.9 |
| 20260506151136 | 13 | 286 | 3.2 | 14.5 | 0.00 | 0.20 | 0.10 | 88 | 1009.9 |
| 20260506150630 | 13 | 294 | 3.2 | 16.1 | 0.00 | 0.20 | 0.10 | 89 | 1009.8 |
| 20260506150537 | 13 | 276 | 4.8 | 19.3 | 0.00 | 0.20 | 0.10 | 88 | 1010.0 |
| 20260506145632 | 13 | 255 | 11.3 | 20.9 | 0.00 | 0.20 | 0.10 | 88 | 1009.7 |
| 20260506145138 | 13 | 269 | 9.7 | 20.9 | 0.00 | 0.20 | 0.10 | 87 | 1010.1 |
| 20260506144629 | 13 | 258 | 9.7 | 20.9 | 0.00 | 0.23 | 0.10 | 87 | 1009.6 |
| 20260506144130 | 13 | 248 | 12.9 | 20.9 | 0.00 | 0.23 | 0.10 | 86 | 1009.7 |
| 20260506143630 | 13 | 234 | 14.5 | 19.3 | 0.00 | 0.23 | 0.10 | 87 | 1009.5 |
| 20260506143132 | 13 | 253 | 6.4 | 19.3 | 0.00 | 0.23 | 0.10 | 87 | 1009.7 |
| 20260506142630 | 13 | 257 | 12.9 | 19.3 | 0.00 | 0.23 | 0.10 | 87 | 1009.7 |
| 20260506142535 | 13 | 256 | 9.7 | 22.5 | 0.00 | 0.23 | 0.10 | 87 | 1009.6 |
| 20260506141702 | 13 | 200 | 6.4 | 24.1 | 0.00 | 0.25 | 0.10 | 87 | 1009.7 |
| 20260506141259 | 13 | 271 | 17.7 | 30.6 | 0.00 | 0.25 | 0.10 | 85 | 1009.5 |
| 20260506140129 | 14 | 296 | 8.0 | 22.5 | 0.00 | 0.25 | 0.10 | 82 | 1009.6 |
| 20260506140030 | 14 | 265 | 12.9 | 17.7 | 0.00 | 0.28 | 0.10 | 82 | 1009.5 |
| 20260506135129 | 14 | 237 | 6.4 | 14.5 | 0.00 | 0.28 | 0.10 | 83 | 1009.4 |
| 20260506134640 | 14 | 278 | 8.0 | 14.5 | 0.00 | 0.28 | 0.10 | 84 | 1009.4 |
| 20260506134130 | 14 | 260 | 6.4 | 17.7 | 0.00 | 0.28 | 0.10 | 84 | 1009.6 |
| 20260506134027 | 14 | 295 | 6.4 | 37.0 | 0.00 | 0.28 | 0.10 | 83 | 1009.3 |
| 20260506133130 | 14 | 271 | 12.9 | 37.0 | 0.00 | 0.28 | 0.10 | 80 | 1009.3 |
| 20260506133015 | 15 | 257 | 12.9 | 30.6 | 0.00 | 0.30 | 0.10 | 78 | 1009.5 |
| 20260506132238 | 15 | 239 | 24.1 | 30.6 | 0.00 | 0.30 | 0.10 | 76 | 1009.4 |
| 20260506132135 | 15 | 288 | 16.1 | 29.0 | 0.00 | 0.30 | 0.10 | 75 | 1009.3 |
| 20260506132044 | 15 | 247 | 11.3 | 22.5 | 0.00 | 0.30 | 0.10 | 75 | 1009.4 |
| 20260506131940 | 15 | 268 | 9.7 | 19.3 | 0.00 | 0.30 | 0.10 | 76 | 1009.2 |
| 20260506131823 | 15 | 241 | 6.4 | 22.5 | 0.00 | 0.33 | 0.00 | 77 | 1008.9 |
| 20260506125627 | 15 | 282 | 4.8 | 22.5 | 0.00 | 0.33 | 0.10 | 76 | 1009.2 |
| 20260506125124 | 15 | 218 | 8.0 | 19.3 | 0.00 | 0.33 | 0.10 | 76 | 1009.2 |
| 20260506124625 | 15 | 247 | 9.7 | 20.9 | 0.00 | 0.33 | 0.10 | 77 | 1009.2 |
| 20260506124125 | 15 | 229 | 9.7 | 20.9 | 0.00 | 0.33 | 0.10 | 76 | 1009.2 |
| 20260506123628 | 15 | 245 | 6.4 | 16.1 | 0.00 | 0.36 | 0.10 | 77 | 1009.2 |
| 20260506123501 | 15 | 213 | 3.2 | 16.1 | 0.00 | 0.36 | 0.10 | 78 | 1009.2 |
| 20260506122625 | 14 | 244 | 8.0 | 9.7 | 0.00 | 0.36 | 0.10 | 80 | 1009.0 |
| 20260506122125 | 14 | 243 | 1.6 | 6.4 | 0.00 | 0.36 | 0.10 | 81 | 1009.3 |
| 20260506121638 | 14 | 197 | 3.2 | 6.4 | 0.00 | 0.38 | 0.10 | 82 | 1009.0 |
| 20260506121128 | 13 | 223 | 4.8 | 6.4 | 0.00 | 0.38 | 0.10 | 83 | 1009.2 |
| 20260506120957 | 13 | 249 | 0.0 | 12.9 | 0.00 | 0.38 | 0.10 | 83 | 1009.1 |
| 20260506120429 | 13 | 224 | 6.4 | 12.9 | 0.00 | 0.41 | 0.10 | 83 | 1009.4 |
| 20260506120311 | 13 | 141 | 6.4 | 12.9 | 0.00 | 0.41 | 0.10 | 84 | 1009.4 |
| 20260506115452 | 13 | 145 | 1.6 | 9.7 | 0.00 | 0.41 | 0.10 | 83 | 1009.2 |
| 20260506114956 | 13 | 201 | 0.0 | 8.0 | 0.00 | 0.43 | 0.10 | 83 | 1009.3 |
| 20260506114125 | 13 | 161 | 0.0 | 9.7 | 0.00 | 0.43 | 0.10 | 83 | 1009.3 |
| 20260506114009 | 13 | 200 | 3.2 | 11.3 | 0.00 | 0.43 | 0.10 | 82 | 1009.4 |
| 20260506113155 | 13 | 305 | 1.6 | 11.3 | 0.00 | 0.43 | 0.10 | 82 | 1009.3 |
| 20260506112728 | 13 | 206 | 3.2 | 11.3 | 0.00 | 0.43 | 0.10 | 82 | 1009.4 |
| 20260506112149 | 13 | 286 | 3.2 | 9.7 | 0.00 | 0.43 | 0.10 | 82 | 1009.1 |
| 20260506111948 | 13 | 206 | 0.0 | 16.1 | 0.00 | 0.43 | 0.10 | 83 | 1009.3 |
| 20260506111145 | 13 | 233 | 3.2 | 16.1 | 0.00 | 0.43 | 0.10 | 81 | 1009.4 |
| 20260506110654 | 13 | 140 | 1.6 | 19.3 | 0.00 | 0.43 | 0.10 | 82 | 1009.2 |
| 20260506110449 | 13 | 261 | 3.2 | 19.3 | 0.00 | 0.43 | 0.10 | 82 | 1009.2 |
| 20260506105706 | 13 | 253 | 3.2 | 14.5 | 0.00 | 0.43 | 0.10 | 84 | 1009.1 |
| 20260506105125 | 13 | 101 | 3.2 | 14.5 | 0.00 | 0.43 | 0.10 | 85 | 1009.3 |
| 20260506104634 | 13 | 279 | 3.2 | 19.3 | 0.00 | 0.43 | 0.10 | 86 | 1009.2 |
| 20260506104144 | 13 | 219 | 11.3 | 20.9 | 0.00 | 0.43 | 0.10 | 86 | 1009.1 |
| 20260506103639 | 13 | 258 | 3.2 | 20.9 | 0.00 | 0.43 | 0.10 | 85 | 1009.2 |
| 20260506103137 | 13 | 226 | 4.8 | 11.3 | 0.00 | 0.43 | 0.10 | 85 | 1009.1 |
| 20260506102738 | 13 | 220 | 3.2 | 19.3 | 0.00 | 0.43 | 0.00 | 84 | 1008.9 |
| 20260506102710 | 13 | 179 | 3.2 | 16.1 | 0.00 | 0.43 | 0.10 | 85 | 1009.3 |
| 20260506102503 | 13 | 216 | 9.7 | 16.1 | 0.00 | 0.43 | 0.10 | 85 | 1008.9 |
| 20260506102328 | 13 | 222 | 6.4 | 12.9 | 0.00 | 0.43 | 0.10 | 85 | 1009.0 |
| 20260506102234 | 13 | 258 | 6.4 | 12.9 | 0.00 | 0.43 | 0.10 | 85 | 1008.9 |
| 20260506102143 | 13 | 226 | 3.2 | 16.1 | 0.00 | 0.43 | 0.10 | 84 | 1008.9 |
| 20260506095627 | 13 | 216 | 4.8 | 19.3 | 0.00 | 0.43 | 0.10 | 84 | 1009.1 |
| 20260506095127 | 13 | 151 | 8.0 | 20.9 | 0.00 | 0.43 | 0.10 | 84 | 1008.9 |
| 20260506094627 | 13 | 309 | 4.8 | 20.9 | 0.00 | 0.43 | 0.10 | 86 | 1009.1 |
| 20260506094127 | 13 | 207 | 6.4 | 19.3 | 0.00 | 0.43 | 0.10 | 86 | 1009.0 |
| 20260506093635 | 13 | 170 | 3.2 | 14.5 | 0.00 | 0.43 | 0.10 | 87 | 1009.2 |
| 20260506093130 | 13 | 22 | 0.0 | 14.5 | 0.00 | 0.43 | 0.10 | 88 | 1009.1 |
| 20260506092846 | 12 | 144 | 3.2 | 9.7 | 0.00 | 0.43 | 0.10 | 88 | 1009.1 |
| 20260506092818 | 12 | 182 | 3.2 | 11.3 | 0.00 | 0.43 | 0.10 | 88 | 1009.1 |
| 20260506091630 | 12 | 284 | 3.2 | 16.1 | 0.00 | 0.43 | 0.10 | 89 | 1009.2 |
| 20260506091130 | 12 | 242 | 4.8 | 16.1 | 0.00 | 0.43 | 0.10 | 90 | 1009.1 |
| 20260506090630 | 12 | 278 | 4.8 | 9.7 | 0.00 | 0.43 | 0.10 | 91 | 1008.9 |
| 20260506090140 | 12 | 124 | 3.2 | 9.7 | 0.00 | 0.43 | 0.10 | 91 | 1009.1 |